Regional Weather Roundup
Issued by NWS

Home | Current Version | Previous Version | Text Only | Print | Product List | Glossary On
Versions: 1 2 3 4 5 6 7 8 9 10 11 12 13 14 15 16 17 18 19 20 21 22 23 24 25 26 27 28 29 30 31 32 33 34 35 36 37 38 39 40 41 42 43 44 45 46 47 48 49 50
000
ASUS43 KLOT 220712
RWRIL

ILLINOIS REGIONAL WEATHER ROUNDUP
NATIONAL WEATHER SERVICE CHICAGO/ROMEOVILLE IL
100 AM CST WED FEB 22 2017

NOTE: "FAIR" INDICATES FEW OR NO CLOUDS BELOW 12,000 FEET WITH NO
SIGNIFICANT WEATHER AND/OR OBSTRUCTIONS TO VISIBILITY.

* THESE STATIONS ARE NOT UNDER NWS QUALITY CONTROL. THEY ALSO MAY NOT
  REPORT WEATHER SUCH AS PRECIPITATION OR FOG.

ILZ001-002-007-009-015-016-024-220800-
NORTHWEST ILLINOIS

CITY           SKY/WX    TMP DP  RH WIND       PRES   REMARKS
MOLINE         CLEAR     49  46  90 CALM      29.83S FOG
STERLING*      LGT RAIN  48  47  96 CALM      29.84F VSB 1/2
SAVANNA*       CLEAR     41  40  96 S6        29.82F
$$

ILZ003-004-008-010-011-017-018-220800-
NORTH CENTRAL ILLINOIS

CITY           SKY/WX    TMP DP  RH WIND       PRES   REMARKS
ROCKFORD       FOG       44  42  93 CALM      29.85F VSB 1/4
FREEPORT*      CLEAR     50  49  96 S8        29.84S FOG
ROCHELLE*      FOG       42  42 100 S8        29.85F VSB<1/4
DE KALB*       FOG       46  46  99 S7        29.85F VSB 1/4
PERU*          FOG       48  47  99 S5        29.85F VSB 1/4
$$

ILZ005-006-012>014-019>023-220800-
NORTHEAST ILLINOIS

CITY           SKY/WX    TMP DP  RH WIND       PRES   REMARKS
CHICAGO-OHARE  MOCLDY    56  52  86 SW5       29.84S
CHICAGO-MIDWAY PTCLDY    54  50  86 SW5       29.85F FOG
AURORA         FOG       43  41  93 NW3       29.85S VSB 1/4
LANSING*       FOG       45  45 100 S3        29.86S VSB<1/4
JOLIET*        FOG       46  46 100 CALM      29.86S VSB 1/4
WAUKEGAN       MOCLDY    49  49 100 SW6       29.83R FOG
DUPAGE AIRPORT CLOUDY    49  47  93 SW5       29.84F FOG
KANKAKEE*      PTCLDY    49  49  97 SW3       29.87S FOG
WHEELING       MOCLDY    52  50  93 S7        29.85F FOG
MORRIS*        FOG       47  47  97 CALM      29.85S VSB 1/4
ROMEOVILLE*    FOG       47  47 100 CALM      29.86S VSB 1/4
NORTHERLY ISL    N/A     56  52  86 S5          N/A
$$

LMZ740>746-220800-
SOUTHERN LAKE MICHIGAN

STATION/POSITION SKY/WX   TEMP    WIND        PRES    VSBY  WAVE
                          AIR SEA DIR/SP/G                  HT/PER
                          (F)     (DEG/KT/KT) (MB)    (MI)  (FT/S)
HARRISON CRIB              58     200/ 10/ 11   N/A
BURNHAM HARBOR             55     240/  3/  6   N/A
CALUMET HARBOR                    190/  3/  4 1010.4F
BURNS HARBOR               51     200/  6/  7 1011.9S
MICHIGAN CITY              54     150/  5/  7   N/A
$$

ILZ025>027-034>036-040-047-049-050-058-095>099-220800-
WEST-CENTRAL ILLINOIS

CITY           SKY/WX    TMP DP  RH WIND       PRES   REMARKS
QUINCY         FOG       50  50 100 S5        29.86S VSB<1/4
GALESBURG*     FOG       49  49 100 S5        29.85S VSB<1/4
MACOMB*        FOG       48  48 100 SW5       29.87S VSB 1/4
JACKSONVILLE*  FOG       54  53  99 S5        29.86S VSB 1
PITTSFIELD*    FOG       51  51 100 SW3       29.88S VSB 1/4
$$

ILZ028>032-037-038-041>044-048-051>054-059>061-220800-
CENTRAL ILLINOIS

CITY           SKY/WX    TMP DP  RH WIND       PRES   REMARKS
PONTIAC        FOG       51  50  98 CALM      29.87S VSB 1/4
BLOOMINGTON    CLEAR     48  48 100 SW8       29.87S FOG
DECATUR        PTCLDY    53  51  93 S8        29.86S
PEORIA         FOG       55  55 100 SW6       29.86S VSB 1/4
LACON*         FOG       50  50 100 CALM      29.85S VSB 1/4
LINCOLN*       FOG       50  50 100 CALM      29.86S VSB<1/4
SPRINGFIELD    FOG       52  50  93 CALM      29.87R VSB 1/2
TAYLORVILLE    MOCLDY    50  50 100 S5        29.88R FOG
$$

ILZ033-039-045-046-055>057-062-063-220800-
EAST-CENTRAL ILLINOIS

CITY           SKY/WX    TMP DP  RH WIND       PRES   REMARKS
CHAMPAIGN      PTCLDY    51  49  92 S6        29.87S FOG
RANTOUL*       PTCLDY    52  51  97 S6        29.87R FOG
MATTOON        CLOUDY    48  48 100 S6        29.87F FOG
PARIS*         MOCLDY    51  51 100 SE5       29.89F FOG
$$

ILZ079-100>102-220800-
SOUTHWEST ILLINOIS

CITY           SKY/WX    TMP DP  RH WIND       PRES   REMARKS
ALTON          FOG       49  49 100 SE3       29.89R VSB 1/2
BELLEVILLE     CLOUDY    50  50 100 CALM      29.86F FOG
CAHOKIA*       PTCLDY    50  48  93 CALM      29.87F FOG
SPARTA*        CLOUDY    54  53  95 CALM      29.90R
$$

ILZ064>066-069>071-074>076-080>082-084>086-088>090-092>094-220800-
SOUTH-CENTRAL ILLINOIS

CITY           SKY/WX    TMP DP  RH WIND       PRES   REMARKS
CARBONDALE     CLOUDY    53  53 100 CALM      29.89F FOG
CAIRO*         CLOUDY    55  55  99 CALM      29.89F
EFFINGHAM*     MOCLDY    49  49 100 E3        29.91S FOG
MARION         CLOUDY    52  52 100 CALM      29.90F FOG
MT. VERNON     CLOUDY    50  49  96 CALM      29.89F
CENTRALIA*     CLOUDY    51  51  99 CALM      29.88F FOG
SALEM*         MOCLDY    55  53  93 CALM      29.88F
METROPOLIS*    CLOUDY    56  56  98 CALM      29.91S FOG
$$

ILZ067-068-072-073-078-083-087-091-220800-
SOUTHEAST ILLINOIS

CITY           SKY/WX    TMP DP  RH WIND       PRES   REMARKS
LAWRENCEVILLE  FOG       52  52 100 E5        29.89F VSB 1/4
FLORA*         FOG       54  53  97 CALM      29.89F VSB 1/2
FAIRFIELD*     CLOUDY    52  52 100 CALM      29.88F FOG
HARRISBURG*    CLOUDY    53  53  99 CALM      29.89F FOG
ROBINSON*      FOG       47  47 100 CALM      29.91R VSB 1/4
CARMI*         CLOUDY    51  51 100 S3        29.89S FOG
$$

ABBREVIATIONS USED IN REMARKS
   TC - TEMPERATURE IN CELSIUS
  WCI - WIND CHILL INDEX
   HX - HEAT INDEX
  VSB - VISIBILITY
$$





USA.gov is the U.S. government's official web portal to all federal, state and local government web resources and services.